Regional Weather Roundup
Issued by NWS Grand Forks, ND

Home | Current Version | Previous Version | Text Only | Print | Product List | Glossary On
Versions: 1 2 3 4 5 6 7 8 9 10 11 12 13 14 15 16 17 18 19 20 21 22 23 24 25 26 27 28 29 30 31 32 33 34 35 36 37 38 39 40 41 42 43 44 45 46 47 48 49 50
000
ASUS43 KFGF 030931
RWRFGF
PRAIRIE TO PINES  WEATHER ROUNDUP
NATIONAL WEATHER SERVICE EASTERN NORTH DAKOTA/GRAND FORKS ND
400 AM CDT TUE AUG 03 2021

 **SATELLITE DATA USED TO AUGMENT SKY COVER AT AUTOMATED STATIONS**
 *****  WEATHER ACROSS EASTERN NORTH DAKOTA  *****

CITY           SKY/WX    TMP DP  RH WIND       PRES   REMARKS
GRAND FORKS    FAIR      60  52  74 W5        30.01S
GRAND FRKS AFB PTCLDY    60  58  92 W6        30.01S
GRAND FRKS NWS   N/A     63  55  74 W2        29.97R
DEVILS LAKE    FAIR      63  57  81 CALM      30.06S
FARGO          FAIR      63  54  72 S6        30.04S
WAHPETON ARPT  PTSUNNY   61  57  88 SE5       30.05F FOG
$$

 ***** WEATHER ACROSS CENTRAL AND WESTERN NORTH DAKOTA  *****

CITY           SKY/WX    TMP DP  RH WIND       PRES   REMARKS
BISMARCK       FAIR      64  55  72 NE6       30.07R
MINOT          FAIR      63  52  67 CALM      30.04S
JAMESTOWN      FAIR      60  53  77 CALM      30.05F
MINOT AFB      FAIR      58  43  57 CALM      30.02F
GARRISON         N/A     62  52  69 E3        30.05F
WILLISTON      NOT AVBL
DICKINSON      FAIR      60  51  72 S9        30.06S
HETTINGER      FAIR      64  55  72 SE3       30.08S
$$

 *****  OTHER AIRPORT OBSERVATIONS IN OUR AREA  *****

CITY           SKY/WX    TMP DP  RH WIND       PRES   REMARKS
WALHALLA       FAIR      68  68 100 CALM      30.00S
GRAFTON AIRPOR FAIR      63  57  82 W7          N/A  HAZE
VALLEY CITY AR FAIR      59  59 100 CALM      30.08S
CANDO            N/A     57  57 100 CALM      30.07F FOG
CAVALIER APRT  CLOUDY    66  55  68 W5        30.00R HAZE
GWINNER        CLOUDY    61  61 100 SW9       30.07S
SHEYENNE NWR     N/A     58  56  94 SW2       29.95S
ROLLA          FAIR      61  57  88 SW6       30.07S
 ***** THE ABOVE OBSERVATIONS ARE NON NWS ARE NOT QUALITY
       CONTROLLED AND MAY MIS-REPORT RAIN FOR SNOW...
$$

  *****  WEATHER ACROSS NORTHERN MINNESOTA  *****

CITY           SKY/WX    TMP DP  RH WIND       PRES   REMARKS
FLAG ISLAND    NOT AVBL
WARROAD        FAIR      57  54  88 CALM      30.01S
ROSEAU         FAIR      57  52  82 CALM      30.01S
HALLOCK        FAIR      57  54  88 S3        29.99F
THF RVR FALLS  FAIR      61  54  77 S3        30.04S
BAUDETTE       FAIR      56  53  90 S3        30.02R FOG
WASKISH        FAIR      70  57  64 W10       30.02S
CROOKSTON      FAIR      55  52  88 SE7       30.02F
STEPHEN NDAWN    N/A     57  52  82 VRB5        N/A
GREENBUSH NDAW   N/A     57  52  82 VRB2        N/A
$$
  *****  WEATHER ACROSS CENTRAL AND WEST MINNESOTA  *****

CITY           SKY/WX    TMP DP  RH WIND       PRES   REMARKS
FOSSTON        FAIR      55  52  88 S5        30.05S
BEMIDJI        FAIR      60  54  80 SW6       30.05S
PARK RAPIDS    FAIR      62  55  77 CALM      30.07S HAZE
ELBOW LAKE     NOT AVBL
WADENA         FAIR      57  54  88 CALM      30.07F
DETROIT LAKES  MOCLDY    66  55  68 SW6       30.07S
MOORHEAD       FAIR      63  54  72 SE5       30.06S
FERGUS FALLS   FAIR      63  55  77 S3        30.04S
MORRIS MN      FAIR      55  55 100 S5        30.09S FOG
STAPLES        FAIR      59  54  82 CALM      30.08S
$$
  *****  WEATHER ELSEWHERE ACROSS MINNESOTA  *****

CITY           SKY/WX    TMP DP  RH WIND       PRES   REMARKS
DULUTH         MOCLDY    66  53  63 W9        30.05S
INTRNTL FALLS  MOCLDY    55  52  89 CALM      30.00S
ELY            FAIR      57  52  82 CALM      30.03F
CLOQUET        MOCLDY    63  52  67 W6        30.05S
WHEATON        FAIR      61  54  77 S3        30.08F
BRAINERD       FAIR      56  52  86 S5        30.08S FOG
HIBBING        FAIR      49  48  97 CALM      30.05R FOG
ALEXANDRIA     FAIR      62  54  74 SW6       30.10S HAZE
SAINT CLOUD    FAIR      55  53  93 CALM      30.08S FOG
MINNEAPOLIS    FAIR      66  55  67 SW5       30.10S
$$

  *****  WEATHER ACROSS SOUTH DAKOTA  *****

CITY           SKY/WX    TMP DP  RH WIND       PRES   REMARKS
SIOUX FALLS    FAIR      66  57  72 SW5       30.12S
BROOKINGS      FAIR      60  56  86 S5        30.12S
WATERTOWN      FAIR      57  55  93 SE6       30.10F
HURON          FAIR      59  56  89 SE3       30.08F
SISSETON         N/A     64  56  75 SW6       30.06S
ABERDEEN       FAIR      55  52  89 S6        30.08S
MITCHELL       FAIR      59  57  93 SE5       30.10S FOG
PIERRE         FAIR      66  57  72 E8        30.05S
MOBRIDGE       FAIR      65  56  72 S8        30.04F
RAPID CITY     FAIR      57  47  69 CALM      30.06F
$$

  *****  SOME WEATHER IN NEARBY STATES *****

CITY           SKY/WX    TMP DP  RH WIND       PRES   REMARKS
GLASGOW MT     FAIR      75  45  34 E8        30.03F
GREAT FALLS MT CLOUDY    71  58  63 SW10      30.11F
CHEYENNE WY    FAIR      63  50  62 W7        30.24S
SCOTTSBLUFF NE FAIR      63  49  60 E8        30.10S
OMAHA NE       FAIR      61  59  93 CALM      30.14S
DES MOINES IA  FAIR      61  58  90 CALM      30.12S
DAVENPORT IA   FAIR      53  51  93 CALM      30.14R
CHICAGO IL     FAIR      62  55  77 CALM      30.10S
EAU CLAIRE WI  FAIR      61  57  87 SW3       30.08S
LA CROSSE WI   FAIR      64  61  90 S7        30.10S
$$

  *****  SOME NATIONAL WEATHER *****

CITY           SKY/WX    TMP DP  RH WIND       PRES   REMARKS
LA GUARDIA NY  MOCLDY    69  55  60 NE5       30.09S
RALEIGH NC     CLOUDY    71  64  78 E8        30.02F
ATLANTA GA     LGT RAIN  74  69  85 E6        29.98S
NEW ORLEANS LA MOCLDY    80  74  81 NW3       29.93S
OKLAHOMA CITY  FAIR      70  61  73 N5        30.06F
ALBUQUERQUE NM CLOUDY    71  55  56 NE7       30.26S
SALT LAKE CITY FAIR      68  60  75 NW6       30.23S
LOS ANGELES CA FAIR      64  58  80 W3        29.95F
BOISE ID       FAIR      75  59  57 S20G32    30.07F
SEATTLE WA     FAIR      68  49  50 NE14      30.07F
$$

*** WEATHER ACROSS MANITOBA...SASKATCHEWAN AND ONTARIO ***
                ***ONTARIO***

CITY           SKY/WX    TMP DP  RH WIND       PRES   REMARKS
GERALDTON      CLOUDY    59  54  82 NE10      29.96R
THUNDER BAY    CLOUDY    57  54  88 SW5       29.95S
SIOUX LOOKOUT  MOCLDY    57  55  94 CALM      29.97S SMOKE
TORONTO        CLEAR     59  50  72 W5        30.08S
BIG TROUT LK     N/A     39  39 100 CALM      29.99S
PICKLE LAKE    PTCLDY    54  50  87 E5        29.99R
DRYDEN         CLOUDY    63  57  82 SW7       29.99R HAZE
KENORA         MOCLDY    66  63  88 SW6       30.00R
$$
                *** MANITOBA***

CITY           SKY/WX    TMP DP  RH WIND       PRES   REMARKS
BRANDON        PTCLDY    57  54  88 W6        30.02S
DAUPHIN        PTCLDY    64  55  72 W6        29.96S
ISLAND LAKE    CLEAR     59  50  72 S5        29.99S
PILOT MOUND      N/A     57  54  88 SW5         N/A
THE PAS        CLOUDY    66  61  82 MISG      29.94S HAZE
THOMPSON       CLEAR     48  45  87 CALM      29.96F
WINNIPEG       PTCLDY    63  54  72 VRB2      29.97S
LYNN LAKE      PTCLDY    61  52  72 SW7       29.94F
CHURCHILL      CLOUDY    66  54  63 W14       29.72F
GILLAM         PTCLDY    54  48  82 SW8       29.91F
$$
                ***SASKATCHEWAN***

CITY           SKY/WX    TMP DP  RH WIND       PRES   REMARKS
ESTEVAN        CLEAR     59  52  77 S8        30.05S
KINDERSLEY     LGT RAIN  72  55  56 S6        30.00F
LLOYDMINSTER   CLOUDY    66  61  82 E6        29.96F HAZE
PRINCE ALBERT  CLOUDY    66  63  88 E2        29.99S
REGINA         MOCLDY    66  50  55 S5        30.02F
YORKTON        MOCLDY    70  52  52 SW9       29.99F
N. BATTLEFORD  MOCLDY    70  59  68 VRB2      29.99R
LA RONGE         N/A     63  59  88 CALM      29.99R SMOKE
SASKATOON      MOCLDY    72  52  49 S5        29.96S
SWIFT CURRENT  CLOUDY    72  52  49 E5        30.04S
$$
NOTE: THESE ARE AUTOMATED STATIONS WITH LIMITED QUALITY CONTROL
      "FAIR" INDICATES FEW OR NO CLOUDS BELOW 12,000 FEET WITH NO
      SIGNIFICANT WEATHER AND/OR OBSTRUCTIONS TO VISIBILITY.
      SKY/WX - SKY CONDITION AND SIGNIFICANT WEATHER.
      TMP - AIR TEMPERATURE.    DP   - DEWPOINT TEMPERATURE.
      RH  - RELATIVE HUMIDITY.  PRES - PRESSURE.
      HX  - HEAT INDEX.         WCI  - WIND CHILL INDEX.
$



USA.gov is the U.S. government's official web portal to all federal, state and local government web resources and services.